Regional Weather Roundup
Issued by NWS

Home | Current Version | Previous Version | Text Only | Print | Product List | Glossary On
Versions: 1 2 3 4 5 6 7 8 9 10 11 12 13 14 15 16 17 18 19 20 21 22 23 24 25 26 27 28 29 30 31 32 33 34 35 36 37 38 39 40 41 42 43 44 45 46 47 48 49 50
608
ASUS43 KDTX 121810
RWRMI
MICHIGAN HOURLY REGIONAL WEATHER ROUNDUP
NATIONAL WEATHER SERVICE DETROIT/PONTIAC MI
100 PM EST FRI FEB 12 2016

NOTE: "FAIR" INDICATES FEW OR NO CLOUDS BELOW 12,000 FEET WITH NO
SIGNIFICANT WEATHER AND/OR OBSTRUCTION TO VISIBILITY.

MIZ047>049-052>055-059>063-066>070-074>076-081>083-121900-
SOUTHEAST LOWER MICHIGAN

CITY           SKY/WX    TMP DP  RH WIND       PRES   REMARKS
ADRIAN         LGT SNOW  22  15  75 W15G22    30.00F WCI   9
6HR MIN TEMP:  15; 6HR MAX TEMP:  22; 6HR PCP: TRACE;

ALMA           PTSUNNY   22   7  53 W16G25    29.98S WCI   8
6HR MIN TEMP:  20; 6HR MAX TEMP:  23;

ANN ARBOR      FLURRIES  23  15  71 W17       29.96F WCI   9
BAD AXE        PTSUNNY   22  10  58 W10G21    29.91F WCI  11
CARO           CLOUDY    19  12  73 W15G21    29.94F WCI   5
DETROIT CITY   CLOUDY    22  13  68 W13       29.96F WCI  10
6HR MIN TEMP:  16; 6HR MAX TEMP:  22; 6HR PCP: TRACE;

DETROIT        FLURRIES  24  15  68 SW15G23   29.98F WCI  11
6HR MIN TEMP:  16; 6HR MAX TEMP:  24; 6HR PCP: TRACE;

FLINT          SNOW      21  14  74 NW15      29.94F VSB 1/2 WCI   8
6HR MIN TEMP:  17; 6HR MAX TEMP:  24; 6HR PCP:  0.01;

GROSSE ILE     LGT SNOW  23  16  74 SW15      29.97F WCI  10
HILLSDALE      LGT SNOW  21  14  76 W16       29.97F WCI   7
6HR MIN TEMP:  15; 6HR MAX TEMP:  21;

HOWELL         LGT SNOW  22  17  79 W13G21    29.93F WCI  10
6HR MIN TEMP:  14; 6HR MAX TEMP:  23;


CITY           SKY/WX    TMP DP  RH WIND       PRES   REMARKS
JACKSON        LGT SNOW  22  15  75 W13G25    29.96F WCI  10
6HR MIN TEMP:  16; 6HR MAX TEMP:  22; 6HR PCP: TRACE;

LAMBERTVILLE   FLURRIES  23  13  67 W10G23    30.01F WCI  12
6HR MIN TEMP:  15; 6HR MAX TEMP:  23;

LANSING        LGT SNOW  20  13  74 NW16      29.97F VSB 3/4 WCI   6
6HR MIN TEMP:  17; 6HR MAX TEMP:  21; 6HR PCP:  0.02;

LAPEER         CLOUDY    20  15  81 W7        29.93F HAZE    WCI  11
6HR MIN TEMP:  14; 6HR MAX TEMP:  21;

MASON          LGT SNOW  21  17  84 W13       29.95F WCI   9
MONROE         LGT SNOW  24  14  68 SW18G25   29.99F WCI   9
6HR MIN TEMP:  17; 6HR MAX TEMP:  24;

MT. CLEMENS    LGT SNOW  24  15  70 SW16      29.93F WCI  10
6HR MIN TEMP:  15; 6HR MAX TEMP:  24; 6HR PCP: TRACE;

PONTIAC        LGT SNOW  21  12  68 W17       29.92F WCI   7
6HR MIN TEMP:  12; 6HR MAX TEMP:  21; 6HR PCP: TRACE;

PORT HOPE        N/A     21   7  54 W13G21    29.89F WCI   9
6HR MIN TEMP:  14; 6HR MAX TEMP:  22;

PORT HURON     FLURRIES  21  12  68 W9        29.94F WCI  11
TRI CITIES     CLOUDY    22   6  50 W14       29.95F WCI   9
6HR MIN TEMP:  18; 6HR MAX TEMP:  22; 6HR PCP: TRACE;

MIDLAND        CLOUDY    21   5  50 W17       29.95S WCI   6
6HR MIN TEMP:  18; 6HR MAX TEMP:  22;

TROY           LGT SNOW  24  17  74 W14G23    29.96F WCI  12
SAGINAW HB     CLOUDY    21  12  68 NW17G24   29.95F HAZE    WCI   7
$$
MIZ043>046-050>051-056>058-064>065-071>073-077>080-121900-
SOUTHWEST LOWER MICHIGAN

CITY           SKY/WX    TMP DP  RH WIND       PRES   REMARKS
BATTLE CREEK   LGT SNOW  20  14  77 W23G30    30.00S VSB 1   WCI   3
6HR MIN TEMP:  16; 6HR MAX TEMP:  21; 6HR PCP: TRACE;

BENTON HARBOR  CLOUDY    22  10  60 W16G25    30.10R WCI   8
6HR MIN TEMP:  21; 6HR MAX TEMP:  24; 6HR PCP: TRACE;

BIG RAPIDS     SNOW      17  11  77 NW10G20   29.97S VSB 1/2 WCI   5
6HR MIN TEMP:  17; 6HR MAX TEMP:  20;

COLDWATER      LGT SNOW  22  17  83 W15G21    30.00F WCI   9
6HR MIN TEMP:  17; 6HR MAX TEMP:  22;

FREMONT        LGT SNOW  19  12  73 NW16G23   30.02S WCI   4
HOLLAND        LGT SNOW  20  12  71 W15G25    30.06S WCI   6
6HR MIN TEMP:  19; 6HR MAX TEMP:  23; 6HR PCP: TRACE;

GRAND RAPIDS   LGT SNOW  20  12  71 NW17      30.01S WCI   5
6HR MIN TEMP:  19; 6HR MAX TEMP:  22; 6HR PCP:  0.01;

IONIA          CLOUDY    21   8  55 W14G29    29.97F WCI   8
6HR MIN TEMP:  18; 6HR MAX TEMP:  21;

KALAMAZOO      LGT SNOW  21  15  78 NW16G22   30.02F VSB 3/4 WCI   7
6HR MIN TEMP:  17; 6HR MAX TEMP:  22; 6HR PCP: TRACE;

LUDINGTON      CLOUDY    18   6  60 NW14G21   30.05R WCI   4
6HR MIN TEMP:  17; 6HR MAX TEMP:  19;

MARSHALL       LGT SNOW  22  18  81 W17       29.98F WCI   8
6HR MIN TEMP:  16; 6HR MAX TEMP:  23;

MOUNT PLEASANT CLOUDY    24   7  47 NW10G21   29.95F WCI  13
6HR MIN TEMP:  20; 6HR MAX TEMP:  24;

MUSKEGON       LGT SNOW  19   8  62 NW15G24   30.06S WCI   5
6HR MIN TEMP:  19; 6HR MAX TEMP:  22; 6HR PCP: TRACE;

SOUTH HAVEN    LGT SNOW  21  11  66 NW15G24   30.08R WCI   7
$$
MIZ016>042-121900-
NORTHERN LOWER MICHIGAN

CITY           SKY/WX    TMP DP  RH WIND       PRES   REMARKS
ALPENA         LGT SNOW  18   9  68 NW13G18   29.88S WCI   5
6HR MIN TEMP:  14; 6HR MAX TEMP:  21; 6HR PCP:  0.02;

BEAVER ISLAND  LGT SNOW  12   6  77 N14G24    29.99R VSB 3/4 WCI  -3
6HR MIN TEMP:  12; 6HR MAX TEMP:  17;

BELLAIRE       LGT SNOW  19   6  55 NW7G26    29.96S WCI  10
6HR MIN TEMP:  17; 6HR MAX TEMP:  20;

CADILLAC       CLOUDY    17   7  65 W16       29.91F HAZE    WCI   1
CHARLEVOIX     CLOUDY    17   8  68 NW21G29   29.99R HAZE    WCI   0
FRANKFORT      LGT SNOW  17   8  68 NW18G26   30.02R VSB 1   WCI   0
GRAYLING       SNOW      14  10  84 NW18G25   29.90R VSB 1/4 WCI  -3
6HR MIN TEMP:  14; 6HR MAX TEMP:  17;

HARBOR SPRINGS CLOUDY    15   5  65 N16G23    29.94R HAZE    WCI  -1
HOUGHTON LAKE  LGT SNOW  17   6  62 W18G28    29.90F WCI   1
6HR MIN TEMP:  14; 6HR MAX TEMP:  18; 6HR PCP: TRACE;

MANISTEE       CLOUDY    18   5  57 NW15G28   30.03S WCI   3
OSCODA         PTSUNNY   21   6  51 W22G28    29.88F WCI   5
6HR MIN TEMP:  14; 6HR MAX TEMP:  22;

PELLSTON       LGT SNOW  13   5  70 N21G33    29.95R VSB 3/4 WCI  -5
6HR MIN TEMP:  13; 6HR MAX TEMP:  17; 6HR PCP: TRACE;

ROGERS CITY    CLOUDY    15   7  70 N14G22    29.91R HAZE    WCI   0
TRAVERSE CITY  LGT SNOW  16  11  80 W22       29.98S BLWGSNOWWCI  -2
6HR MIN TEMP:  16; 6HR MAX TEMP:  19; 6HR PCP: TRACE;

$$
MIZ007>008-015-121900-
EASTERN UPPER MICHIGAN

CITY           SKY/WX    TMP DP  RH WIND       PRES   REMARKS
KINROSS        CLOUDY     9   3  78 NW24G32   29.94S VSB 1/2 WCI -12
6HR MIN TEMP:   9; 6HR MAX TEMP:  12;

MACKINAC ISLAN PTSUNNY   12   4  70 N18G32    29.95R HAZE    WCI  -6
6HR MIN TEMP:  11; 6HR MAX TEMP:  15;

NEWBERRY       HAZE       7   1  77 N14G25    30.00R VSB 1   WCI -10
6HR MIN TEMP:   7; 6HR MAX TEMP:  12;

S. S. MARIE    CLOUDY     8  -5  55 NW17G28   29.97R WCI -10
6HR MIN TEMP:   8; 6HR MAX TEMP:  12; 6HR PCP:  0.02;

MUNISING         N/A      6  -1  73 N25G38    30.10R WCI -16
6HR MIN TEMP:   6; 6HR MAX TEMP:  15; 6HR PCP:  0.04;

$$
MIZ004>006-011>014-085-121900-
CENTRAL UPPER MICHIGAN

CITY           SKY/WX    TMP DP  RH WIND       PRES   REMARKS
MANISTIQUE     SNOW       9   2  73 N22G35    30.04R VSB 1/2 WCI -11
6HR MIN TEMP:   8; 6HR MAX TEMP:  14;

ESCANABA       CLOUDY    12  -6  44 NW13G25   30.08R WCI  -3
6HR MIN TEMP:   5; 6HR MAX TEMP:  16;

MENOMINEE      CLOUDY    16   0  48 NW14G22   30.08S WCI   1
6HR MIN TEMP:  10; 6HR MAX TEMP:  16;

SAWYER-GWINN   SNOW       1  -6  71 N28G33    30.07R VSB 1/4 WCI -23
$$
MIZ001>003-009>011-084-121900-
WESTERN UPPER MICHIGAN

CITY           SKY/WX    TMP DP  RH WIND       PRES   REMARKS
IRON MOUNTAIN  HVY SNOW   8  -2  63 N24G35    30.07R VSB 1/4 WCI -13
6HR MIN TEMP:   7; 6HR MAX TEMP:  11; 6HR PCP: TRACE;

HOUGHTON       HAZE      -2  -9  72 NW21G32   30.17R VSB 1/4 WCI -25
6HR MIN TEMP:  -2; 6HR MAX TEMP:   9; 6HR PCP: TRACE;

COPPER HARBOR    N/A      1  -2  87 N24G37    30.20R WCI -22
6HR MIN TEMP:   0; 6HR MAX TEMP:  13;

IRONWOOD       CLOUDY     1  -4  78 NW20G29   30.22R VSB<1/4 WCI -20
6HR MIN TEMP:   1; 6HR MAX TEMP:   9;

$$

ABBREVIATIONS USED IN REMARKS
   TC - TEMPERATURE IN CELSIUS
  WCI - WIND CHILL INDEX
   HX - HEAT INDEX
  VSB - VISIBILITY





USA.gov is the U.S. government's official web portal to all federal, state and local government web resources and services.